Погода Комсомольск-на-Амуре

Погода Комсомольск-на-Амуре : погода сейчас, прогноз погоды и архив. Всё, что Вы хотите узнать о погоде Комсомольск-на-Амуре!

Хотите узнать прогноз погоды Комсомольск-на-Амуре? Тогда Вам сюда: Погода Комсомольск-на-Амуре

Поиск расширенной информации на нашем сайте:

Полезная информация: детская мебель для детского сада

Другие новости

Новости СМИ2

Главная страница сайта

Новости сайта

02.10.2013

Напоминаем, что на нашем новом сайте вы можете получить высокодетализированные прогнозы погоды по пунктам России, СНГ и мира (включающие важные для авиации метеовеличины, такие как направление и скорость ветра, видимость, явления погоды, количество и форма облачности, нижняя и верхняя граница облачности), а также ознакомиться с разнообразными материалами по авиационной метеорологии и подборкой полезных ссылок на эту тему.

Сайт Метеоцентр.Азия посвящён разработке технологий оптимизации авиаметеорологического обслуживания, включая проектирование и перспективное создание нескольких автоматизированных авиаметеорологических систем:
- система выпуска высокодетальных прогностических карт явлений погоды для нижнего воздушного пространства по России и ближнему зарубежью;
- система верификации прогнозов TAF (выпускаемых синоптиками официальных АМСГ РФ и ближнего зарубежья) и AUTOTAF (выпускаемых сайтом Метеоцентр.Азия) - выявление ошибок, онлайн-сопоставление с фактической погодой METAR, автоматическое внесение коррективов в прогнозы при резком отклонении фактической погоды от прогноза, подсчёт оправдываемости прогнозов по элементам и в целом;
- система обработки, анализа и отображения авиаметеорологической информации для применения провайдерами метеорологической информации.

Рекомендуем: Типографии московский печатный двор.

Погода Комсомольск-на-Амуре - сегодня

Время (UTC), дата Ветер
(°,м/с) 
Видим.   Явления Облачность Т
(°С)
Тd
(°С)
f(%) Тe
(°С)
Pmin
(гПа)
dP
(гПа)
Po
(мм)
O2
(г/м3)
Тmin Tmax R s Состояние
почвы
18 19.06.17 020 (С) 20000 м    10/4 600 м средняя, верхняя 
[Sc|Ac trans|Ci fib]
+12.4 +10.4 88 +15  1010.7  756  290           
21 19.06.17 340 (С) 20000 м    10/3 600 м средняя, верхняя 
[Sc|Ac trans|Cs]
+12.7 +10.1 84 +13  1011.1  0.4  757  289  +12.1        влажная 
00 20.06.17 350 (С) 20000 м    8/5 600 м средняя, верхняя 
[Sc|Ac As|Ci]
+14.9 +10.8 76 +17  1011.6  0.5  757  287           
03 20.06.17 360 (С) 20000 м    10/10 600 м 
[Sc]
+17.9 +10.1 60 +19  1010.7  -0.8  756  284           
06 20.06.17 070 (В) 20000 м    3/3 600 м верхняя 
[Sc|Ci fib]
+20.5 +10.8 54 +23  1009.4  -1.3  755  281           
09 20.06.17 070 (В) 20000 м    4/3 600 м верхняя 
[Sc|Ci fib]
+20.8 +10.4 51 +22  1009  -0.5  755  281    +21.7       
12 20.06.17 020 (С) 20000 м    ясно 
+15.8 +10.6 71 +19  1009.5  0.5  755  286           
15 20.06.17 тихо ()   20000 м    ясно 
+9.9 +9.1 95 +10  1009.3  -0.3  755  292           
18 20.06.17 360 (С) 20000 м    10/0 
[]
+9.3 +7.8 90 +10  1009.2  -0.2  755  293           
21 20.06.17 010 (С) 20000 м    ясно 
+12.7 +9.3 80 +13  1008.8  -0.2  755  289  +8.6        сухая 
00 21.06.17 010 (С) 20000 м    1/0 верхняя 
[Ci fib]
+18.7 +11.4 62 +23  1007.6  -1  754  282           
03 21.06.17 070 (В) 20000 м    ясно 
+23.3 +7.9 37 +23  1005.9  -1.7  753  278           
06 21.06.17 160 (Ю) 20000 м    ясно 
+25 +8.4 35 +25  1003.8  -2.1  751  276           
09 21.06.17 180 (Ю) 20000 м    ясно 
+24.1 +11.9 46 +28  1003.1  -0.7  751  276    +25.5       
12 21.06.17 150 (ЮВ) 20000 м    ясно 
+17.5 +14.7 84 +26  1002.9  -0.2  750  281           
15 21.06.17 180 (Ю) 20000 м    ясно 
+16.2 +14.9 92 +26  1002.4  -0.6  750  282           
18 21.06.17 210 (ЮЗ) 20000 м    4/0 верхняя 
[Cc]
+13.4 +12.7 96 +19  1002.4  750  286           
21 21.06.17 230 (ЮЗ) 10 км    10/10 300 м 
[St]
+15.1 +14.4 96 +24  1003.6  1.2  751  284  +13.3        влажная 
00 22.06.17 260 (З) 20000 м    10/10 600 м 
[Sc]
+17.8 +15 84 +28  1004.7  1.2  752  281           
03 22.06.17 190 (Ю) 20000 м    9/6 600 м средняя, верхняя 
[Sc|Ac trans|Ci sp]
+21.4 +15.9 71 +32  1003.8  -0.9  751  277           
06 22.06.17 150 (ЮВ) 20000 м    3/1 1000 м верхняя 
[Cu med, cong|Ci sp]
+25.6 +14 49 +33  1002.7  -1.1  750  274           
09 22.06.17 180 (Ю) 20000 м    3/1 1000 м верхняя 
[Cu med, cong|Ci fib]
+25.9 +15.3 52 +35  1002  -0.7  750  273    +26.5       
12 22.06.17 130 (ЮВ) 20000 м    10/3 600 м средняя, верхняя 
[Sc|Ac cast|Cs]
+19.2 +16 82 +31  1002.4  0.4  750  279           
15 22.06.17 020 (С) 20000 м    9/0 средняя, верхняя 
[Ac trans|Cs]
+18.5 +15.9 85 +30  1003.3  0.9  751  280           
18 22.06.17 тихо ()   20000 м    10/6 600 м средняя, верхняя 
[Sc|Ac trans|Cc]
+16.6 +12.8 78 +22  1002.9  -0.4  750  283           
Время (UTC), дата Ветер
(°,м/с) 
Видим.   Явления Облачность Т
(°С)
Тd
(°С)
f(%) Тe
(°С)
Pmin
(гПа)
dP
(гПа)
Po
(мм)
O2
(г/м3)
Тmin Tmax R s Состояние
почвы

Для получения пояснительной информации подведите курсор к названию столбца.

ПОГОДА Комсомольск-на-Амуре - архив

Всё, что Вы хотите узнать о погоде Комсомольск-на-Амуре - удобно и подробно!

Выберите нужную дату (начиная с 1 января 2015* года) и нажмите кнопку "Найти".
Будут отображены архивные сводки погоды по пункту Комсомольск-на-Амуре, начиная с указанной даты.


Отображать данные в формате CSV (для использования в таблицах Excel)


Внимание! Наш архив погоды предназначен исключительно для личного некоммерческого использования в познавательных целях. Если Вам необходимы официальные справки о состоянии погоды (для производственных, юридических, коммерческих и т.п. целей), обращайтесь в органы Росгидромета.

*Примечание: данная дата относится к архиву по метеостанциям СССР (Россия, СНГ, Балтия).
Архив по метеостанциям Зарубежной Европы и Азии (кроме Китая) хранится 10 дней, по другим регионам земного шара (Китай, Африка, Америка, Австралия, Океания) - 1 день.

Комсомольск-на-Амуре - район местоположения метеостанции


Название, широта, долгота, высота метеостанции:
Комсомольск-на-Амуре 50.6°ш. 137°д. 19 м над ур. моря [Российская Федерация]

Дополнительная информация

В oтличие oт бoльшинства пoгoдных сайтoв мы публикуем пoдрoбную метеoинфoрмацию в детальнoм прoфессиoнальнoм фoрмате.

Характеристики температуры и влажнoсти вoздуха измеряются на высoте 2 м в тени вдали oт зданий и деревьев.
Скoрoсть ветра измеряется на высoте 10 м (на урoвне рoста челoвека скoрoсть ветра ниже в 1.5-2 раза). Если метеoстанция нахoдится в гoрoде или в лесу, тo скoрoсть ветра занижена на 2-4 м/с пo сравнению с oткрытым местoм. Скoрoсть ветра над акватoриями крупных рек и oзёр, а также на вершинах хoлмoв на 2-5 м/с выше, чем в oбычных услoвиях.
Атмoсфернoе давление в разных тoчках местнoсти мoжет значительнo oтличаться oт давления на метеoстанции, в зависимoсти oт услoвий рельефа (при пoдъёме на 10 м давление пoнижается примернo на 1 мм рт.ст.).